Time,TemperatureF,DewpointF,PressureIn,WindDirection,WindDirectionDegrees,WindSpeedMPH,WindSpeedGustMPH,Humidity,HourlyPrecipIn,Conditions,Clouds,dailyrainin,SoftwareType,DateUTC
2013-05-03 00:00:00,60.5,55.4,30.12,North,0,0.0,0.0,83,0.00,,,0.00,WUHU216HW,2013-05-03 04:00:00,
2013-05-03 00:01:00,60.5,55.4,30.12,North,0,0.0,0.0,83,0.00,,,0.00,WUHU216HW,2013-05-03 04:01:00,
2013-05-03 00:03:00,60.5,55.4,30.12,North,0,0.0,0.0,83,0.00,,,0.00,WUHU216HW,2013-05-03 04:03:00,
2013-05-03 00:08:00,60.5,55.4,30.12,North,0,0.0,0.0,83,0.00,,,0.00,WUHU216HW,2013-05-03 04:08:00,
2013-05-03 00:30:00,60.1,55.3,30.11,North,0,0.0,0.0,84,0.00,,,0.00,WUHU216HW,2013-05-03 04:30:00,
2013-05-03 00:31:00,60.1,55.3,30.11,North,0,0.0,0.0,84,0.00,,,0.00,WUHU216HW,2013-05-03 04:31:00,
2013-05-03 00:36:00,60.1,55.3,30.11,North,0,0.0,0.0,84,0.00,,,0.00,WUHU216HW,2013-05-03 04:36:00,
2013-05-03 01:00:00,60.1,55.3,30.11,North,0,0.0,0.0,84,0.00,,,0.00,WUHU216HW,2013-05-03 05:00:00,
2013-05-03 01:01:00,60.1,55.3,30.11,North,0,0.0,0.0,84,0.00,,,0.00,WUHU216HW,2013-05-03 05:01:00,
2013-05-03 01:06:00,60.1,55.3,30.11,North,0,0.0,0.0,84,0.00,,,0.00,WUHU216HW,2013-05-03 05:06:00,
2013-05-03 01:30:00,59.9,55.1,30.10,North,0,0.0,0.0,84,0.00,,,0.00,WUHU216HW,2013-05-03 05:30:00,
2013-05-03 01:31:00,59.9,55.1,30.10,North,0,0.0,0.0,84,0.00,,,0.00,WUHU216HW,2013-05-03 05:31:00,
2013-05-03 01:36:00,59.9,55.1,30.10,North,0,0.0,0.0,84,0.00,,,0.00,WUHU216HW,2013-05-03 05:36:00,
2013-05-03 02:00:00,59.9,54.8,30.09,North,0,0.0,0.0,83,0.00,,,0.00,WUHU216HW,2013-05-03 06:00:00,
2013-05-03 02:01:00,59.9,54.8,30.09,North,0,0.0,0.0,83,0.00,,,0.00,WUHU216HW,2013-05-03 06:01:00,
2013-05-03 02:06:00,59.9,54.8,30.09,North,0,0.0,0.0,83,0.00,,,0.00,WUHU216HW,2013-05-03 06:06:00,
2013-05-03 02:30:00,59.8,54.6,30.08,North,0,0.0,0.0,83,0.00,,,0.00,WUHU216HW,2013-05-03 06:30:00,
2013-05-03 02:31:00,59.8,54.6,30.08,North,0,0.0,0.0,83,0.00,,,0.00,WUHU216HW,2013-05-03 06:31:00,
2013-05-03 02:36:00,59.8,54.6,30.08,North,0,0.0,0.0,83,0.00,,,0.00,WUHU216HW,2013-05-03 06:36:00,
2013-05-03 03:00:00,59.6,54.5,30.08,North,0,0.0,0.0,83,0.00,,,0.00,WUHU216HW,2013-05-03 07:00:00,
2013-05-03 03:01:00,59.6,54.5,30.08,North,0,0.0,0.0,83,0.00,,,0.00,WUHU216HW,2013-05-03 07:01:00,
2013-05-03 03:06:00,59.6,54.5,30.08,North,0,0.0,0.0,83,0.00,,,0.00,WUHU216HW,2013-05-03 07:06:00,
2013-05-03 03:30:00,59.4,53.9,30.07,North,0,0.0,0.0,82,0.00,,,0.00,WUHU216HW,2013-05-03 07:30:00,
2013-05-03 03:31:00,59.4,53.9,30.07,North,0,0.0,0.0,82,0.00,,,0.00,WUHU216HW,2013-05-03 07:31:00,
2013-05-03 03:36:00,59.4,53.9,30.07,North,0,0.0,0.0,82,0.00,,,0.00,WUHU216HW,2013-05-03 07:36:00,
2013-05-03 04:00:00,59.2,53.7,30.07,North,0,0.0,0.0,82,0.00,,,0.00,WUHU216HW,2013-05-03 08:00:00,
2013-05-03 04:01:00,59.2,53.7,30.07,North,0,0.0,0.0,82,0.00,,,0.00,WUHU216HW,2013-05-03 08:01:00,
2013-05-03 04:06:00,59.2,53.7,30.07,North,0,0.0,0.0,82,0.00,,,0.00,WUHU216HW,2013-05-03 08:06:00,
2013-05-03 04:30:00,58.9,53.1,30.07,North,0,0.0,0.0,81,0.00,,,0.00,WUHU216HW,2013-05-03 08:30:00,
2013-05-03 04:31:00,58.9,53.1,30.07,North,0,0.0,0.0,81,0.00,,,0.00,WUHU216HW,2013-05-03 08:31:00,
2013-05-03 04:36:00,58.9,53.1,30.07,North,0,0.0,0.0,81,0.00,,,0.00,WUHU216HW,2013-05-03 08:36:00,
2013-05-03 05:00:00,58.7,52.9,30.07,North,0,0.0,0.0,81,0.00,,,0.00,WUHU216HW,2013-05-03 09:00:00,
2013-05-03 05:01:00,58.7,52.9,30.07,North,0,0.0,0.0,81,0.00,,,0.00,WUHU216HW,2013-05-03 09:01:00,
2013-05-03 05:06:00,58.7,52.9,30.07,North,0,0.0,0.0,81,0.00,,,0.00,WUHU216HW,2013-05-03 09:06:00,
2013-05-03 05:30:00,58.1,52.4,30.07,North,0,0.0,0.0,81,0.00,,,0.00,WUHU216HW,2013-05-03 09:30:00,
2013-05-03 05:31:00,58.1,52.4,30.07,North,0,0.0,0.0,81,0.00,,,0.00,WUHU216HW,2013-05-03 09:31:00,
2013-05-03 05:36:00,58.1,52.4,30.07,North,0,0.0,0.0,81,0.00,,,0.00,WUHU216HW,2013-05-03 09:36:00,
2013-05-03 06:00:00,57.6,52.1,30.06,North,0,0.0,0.0,82,0.00,,,0.00,WUHU216HW,2013-05-03 10:00:00,
2013-05-03 06:01:00,57.6,52.1,30.06,North,0,0.0,0.0,82,0.00,,,0.00,WUHU216HW,2013-05-03 10:01:00,
2013-05-03 06:06:00,57.6,52.1,30.06,North,0,0.0,0.0,82,0.00,,,0.00,WUHU216HW,2013-05-03 10:06:00,
2013-05-03 06:30:00,57.4,51.9,30.08,North,0,0.0,0.0,82,0.00,,,0.00,WUHU216HW,2013-05-03 10:30:00,
2013-05-03 06:31:00,57.4,51.9,30.08,North,0,0.0,0.0,82,0.00,,,0.00,WUHU216HW,2013-05-03 10:31:00,
2013-05-03 06:36:00,57.4,51.9,30.08,North,0,0.0,0.0,82,0.00,,,0.00,WUHU216HW,2013-05-03 10:36:00,
2013-05-03 07:00:00,57.1,51.6,30.09,North,0,0.0,0.0,82,0.00,,,0.00,WUHU216HW,2013-05-03 11:00:00,
2013-05-03 07:01:00,57.1,51.6,30.09,North,0,0.0,0.0,82,0.00,,,0.00,WUHU216HW,2013-05-03 11:01:00,
2013-05-03 07:06:00,57.1,51.6,30.09,North,0,0.0,0.0,82,0.00,,,0.00,WUHU216HW,2013-05-03 11:06:00,
2013-05-03 07:30:00,56.5,51.4,30.09,North,0,0.0,0.0,83,0.00,,,0.00,WUHU216HW,2013-05-03 11:30:00,
2013-05-03 07:31:00,56.5,51.4,30.09,North,0,0.0,0.0,83,0.00,,,0.00,WUHU216HW,2013-05-03 11:31:00,
2013-05-03 07:36:00,56.5,51.4,30.09,North,0,0.0,0.0,83,0.00,,,0.00,WUHU216HW,2013-05-03 11:36:00,
2013-05-03 08:00:00,56.5,51.0,30.10,North,0,0.0,0.0,82,0.00,,,0.00,WUHU216HW,2013-05-03 12:00:00,
2013-05-03 08:01:00,56.5,51.0,30.10,North,0,0.0,0.0,82,0.00,,,0.00,WUHU216HW,2013-05-03 12:01:00,
2013-05-03 08:06:00,56.5,51.0,30.10,North,0,0.0,0.0,82,0.00,,,0.00,WUHU216HW,2013-05-03 12:06:00,
2013-05-03 08:30:00,56.9,51.4,30.10,North,0,0.0,0.0,82,0.00,,,0.00,WUHU216HW,2013-05-03 12:30:00,
2013-05-03 08:31:00,56.9,51.4,30.10,North,0,0.0,0.0,82,0.00,,,0.00,WUHU216HW,2013-05-03 12:31:00,
2013-05-03 08:36:00,56.9,51.4,30.10,North,0,0.0,0.0,82,0.00,,,0.00,WUHU216HW,2013-05-03 12:36:00,
2013-05-03 09:00:00,57.8,52.0,30.10,North,0,0.0,0.0,81,0.00,,,0.00,WUHU216HW,2013-05-03 13:00:00,
2013-05-03 09:01:00,57.8,52.0,30.10,North,0,0.0,0.0,81,0.00,,,0.00,WUHU216HW,2013-05-03 13:01:00,
2013-05-03 09:06:00,57.8,52.0,30.10,North,0,0.0,0.0,81,0.00,,,0.00,WUHU216HW,2013-05-03 13:06:00,
2013-05-03 09:30:00,59.4,52.9,30.10,North,0,0.0,0.0,79,0.00,,,0.00,WUHU216HW,2013-05-03 13:30:00,
2013-05-03 09:31:00,59.4,52.9,30.10,North,0,0.0,0.0,79,0.00,,,0.00,WUHU216HW,2013-05-03 13:31:00,
2013-05-03 09:36:00,59.4,52.9,30.10,North,0,0.0,0.0,79,0.00,,,0.00,WUHU216HW,2013-05-03 13:36:00,
2013-05-03 10:00:00,59.6,52.4,30.11,North,0,0.0,0.0,77,0.00,,,0.00,WUHU216HW,2013-05-03 14:00:00,
2013-05-03 10:01:00,59.6,52.4,30.11,North,0,0.0,0.0,77,0.00,,,0.00,WUHU216HW,2013-05-03 14:01:00,
2013-05-03 10:06:00,59.6,52.4,30.11,North,0,0.0,0.0,77,0.00,,,0.00,WUHU216HW,2013-05-03 14:06:00,
2013-05-03 10:30:00,59.6,52.7,30.11,North,0,0.0,0.0,78,0.00,,,0.00,WUHU216HW,2013-05-03 14:30:00,
2013-05-03 10:31:00,59.6,52.7,30.11,North,0,0.0,0.0,78,0.00,,,0.00,WUHU216HW,2013-05-03 14:31:00,
2013-05-03 10:36:00,59.6,52.7,30.11,North,0,0.0,0.0,78,0.00,,,0.00,WUHU216HW,2013-05-03 14:36:00,
2013-05-03 11:00:00,60.1,52.9,30.11,North,0,0.0,0.0,77,0.00,,,0.00,WUHU216HW,2013-05-03 15:00:00,
2013-05-03 11:01:00,60.1,52.9,30.11,North,0,0.0,0.0,77,0.00,,,0.00,WUHU216HW,2013-05-03 15:01:00,
2013-05-03 11:06:00,60.1,52.9,30.11,North,0,0.0,0.0,77,0.00,,,0.00,WUHU216HW,2013-05-03 15:06:00,
2013-05-03 11:30:00,61.6,53.9,30.11,North,0,0.0,0.0,76,0.00,,,0.00,WUHU216HW,2013-05-03 15:30:00,
2013-05-03 11:31:00,61.6,53.9,30.11,North,0,0.0,0.0,76,0.00,,,0.00,WUHU216HW,2013-05-03 15:31:00,
2013-05-03 11:36:00,61.6,53.9,30.11,North,0,0.0,0.0,76,0.00,,,0.00,WUHU216HW,2013-05-03 15:36:00,
2013-05-03 12:00:00,62.8,54.4,30.09,North,0,0.0,0.0,74,0.00,,,0.00,WUHU216HW,2013-05-03 16:00:00,
2013-05-03 12:01:00,62.8,54.4,30.09,North,0,0.0,0.0,74,0.00,,,0.00,WUHU216HW,2013-05-03 16:01:00,
2013-05-03 12:06:00,62.8,54.4,30.09,North,0,0.0,0.0,74,0.00,,,0.00,WUHU216HW,2013-05-03 16:06:00,
2013-05-03 12:30:00,64.8,56.0,30.09,North,0,0.0,0.0,73,0.00,,,0.00,WUHU216HW,2013-05-03 16:30:00,
2013-05-03 12:31:00,64.8,56.0,30.09,North,0,0.0,0.0,73,0.00,,,0.00,WUHU216HW,2013-05-03 16:31:00,
2013-05-03 12:36:00,64.8,56.0,30.09,North,0,0.0,0.0,73,0.00,,,0.00,WUHU216HW,2013-05-03 16:36:00,
2013-05-03 13:00:00,66.4,56.7,30.08,North,0,0.0,0.0,71,0.00,,,0.00,WUHU216HW,2013-05-03 17:00:00,
2013-05-03 13:01:00,66.4,56.7,30.08,North,0,0.0,0.0,71,0.00,,,0.00,WUHU216HW,2013-05-03 17:01:00,
2013-05-03 13:06:00,66.4,56.7,30.08,North,0,0.0,0.0,71,0.00,,,0.00,WUHU216HW,2013-05-03 17:06:00,
2013-05-03 13:30:00,66.6,56.1,30.07,North,0,0.0,0.0,69,0.00,,,0.00,WUHU216HW,2013-05-03 17:30:00,
2013-05-03 13:31:00,66.6,56.1,30.07,North,0,0.0,0.0,69,0.00,,,0.00,WUHU216HW,2013-05-03 17:31:00,
2013-05-03 13:36:00,66.6,56.1,30.07,North,0,0.0,0.0,69,0.00,,,0.00,WUHU216HW,2013-05-03 17:36:00,
2013-05-03 14:00:00,67.5,55.7,30.06,North,0,0.0,0.0,66,0.00,,,0.00,WUHU216HW,2013-05-03 18:00:00,
2013-05-03 14:01:00,67.5,55.7,30.06,North,0,0.0,0.0,66,0.00,,,0.00,WUHU216HW,2013-05-03 18:01:00,
2013-05-03 14:06:00,67.5,55.7,30.06,North,0,0.0,0.0,66,0.00,,,0.00,WUHU216HW,2013-05-03 18:06:00,
2013-05-03 14:30:00,67.1,55.8,30.05,North,0,0.0,0.0,67,0.00,,,0.00,WUHU216HW,2013-05-03 18:30:00,
2013-05-03 14:31:00,67.1,55.8,30.05,North,0,0.0,0.0,67,0.00,,,0.00,WUHU216HW,2013-05-03 18:31:00,
2013-05-03 14:36:00,67.1,55.8,30.05,North,0,0.0,0.0,67,0.00,,,0.00,WUHU216HW,2013-05-03 18:36:00,
2013-05-03 15:00:00,67.9,55.6,30.04,North,0,0.0,0.0,65,0.00,,,0.00,WUHU216HW,2013-05-03 19:00:00,
2013-05-03 15:01:00,67.9,55.6,30.04,North,0,0.0,0.0,65,0.00,,,0.00,WUHU216HW,2013-05-03 19:01:00,
2013-05-03 15:06:00,67.9,55.6,30.04,North,0,0.0,0.0,65,0.00,,,0.00,WUHU216HW,2013-05-03 19:06:00,
2013-05-03 15:30:00,68.2,56.0,30.03,North,0,0.0,0.0,65,0.00,,,0.00,WUHU216HW,2013-05-03 19:30:00,
2013-05-03 15:31:00,68.2,56.0,30.03,North,0,0.0,0.0,65,0.00,,,0.00,WUHU216HW,2013-05-03 19:31:00,
2013-05-03 15:36:00,68.2,56.0,30.03,North,0,0.0,0.0,65,0.00,,,0.00,WUHU216HW,2013-05-03 19:36:00,
2013-05-03 16:00:00,68.4,55.7,30.03,North,0,0.0,0.0,64,0.00,,,0.00,WUHU216HW,2013-05-03 20:00:00,
2013-05-03 16:01:00,68.4,55.7,30.03,North,0,0.0,0.0,64,0.00,,,0.00,WUHU216HW,2013-05-03 20:01:00,
2013-05-03 16:06:00,68.4,55.7,30.03,North,0,0.0,0.0,64,0.00,,,0.00,WUHU216HW,2013-05-03 20:06:00,
2013-05-03 16:30:00,67.9,55.2,30.02,North,0,0.0,0.0,64,0.00,,,0.00,WUHU216HW,2013-05-03 20:30:00,
2013-05-03 16:31:00,67.9,55.2,30.02,North,0,0.0,0.0,64,0.00,,,0.00,WUHU216HW,2013-05-03 20:31:00,
2013-05-03 16:36:00,67.9,55.2,30.02,North,0,0.0,0.0,64,0.00,,,0.00,WUHU216HW,2013-05-03 20:36:00,
2013-05-03 17:00:00,67.3,55.1,30.02,North,0,0.0,0.0,65,0.00,,,0.00,WUHU216HW,2013-05-03 21:00:00,
2013-05-03 17:01:00,67.3,55.1,30.02,North,0,0.0,0.0,65,0.00,,,0.00,WUHU216HW,2013-05-03 21:01:00,
2013-05-03 17:06:00,67.3,55.1,30.02,North,0,0.0,0.0,65,0.00,,,0.00,WUHU216HW,2013-05-03 21:06:00,
2013-05-03 17:30:00,67.3,55.1,30.02,North,0,0.0,0.0,65,0.00,,,0.00,WUHU216HW,2013-05-03 21:30:00,
2013-05-03 17:31:00,67.3,55.1,30.02,North,0,0.0,0.0,65,0.00,,,0.00,WUHU216HW,2013-05-03 21:31:00,
2013-05-03 17:36:00,67.3,55.1,30.02,North,0,0.0,0.0,65,0.00,,,0.00,WUHU216HW,2013-05-03 21:36:00,
2013-05-03 18:00:00,67.1,54.9,30.01,North,0,0.0,0.0,65,0.00,,,0.00,WUHU216HW,2013-05-03 22:00:00,
2013-05-03 18:01:00,67.1,54.9,30.01,North,0,0.0,0.0,65,0.00,,,0.00,WUHU216HW,2013-05-03 22:01:00,
2013-05-03 18:06:00,67.1,54.9,30.01,North,0,0.0,0.0,65,0.00,,,0.00,WUHU216HW,2013-05-03 22:06:00,
2013-05-03 18:30:00,67.1,54.9,30.01,North,0,0.0,0.0,65,0.00,,,0.00,WUHU216HW,2013-05-03 22:30:00,
2013-05-03 18:31:00,67.1,54.9,30.01,North,0,0.0,0.0,65,0.00,,,0.00,WUHU216HW,2013-05-03 22:31:00,
2013-05-03 18:36:00,67.1,54.9,30.01,North,0,0.0,0.0,65,0.00,,,0.00,WUHU216HW,2013-05-03 22:36:00,
2013-05-03 19:00:00,67.0,54.8,30.01,North,0,0.0,0.0,65,0.00,,,0.00,WUHU216HW,2013-05-03 23:00:00,
2013-05-03 19:01:00,67.0,54.8,30.01,North,0,0.0,0.0,65,0.00,,,0.00,WUHU216HW,2013-05-03 23:01:00,
2013-05-03 19:06:00,67.0,54.8,30.01,North,0,0.0,0.0,65,0.00,,,0.00,WUHU216HW,2013-05-03 23:06:00,
2013-05-03 19:30:00,66.4,54.7,30.01,North,0,0.0,0.0,66,0.00,,,0.00,WUHU216HW,2013-05-03 23:30:00,
2013-05-03 19:31:00,66.4,54.7,30.01,North,0,0.0,0.0,66,0.00,,,0.00,WUHU216HW,2013-05-03 23:31:00,
2013-05-03 19:36:00,66.4,54.7,30.01,North,0,0.0,0.0,66,0.00,,,0.00,WUHU216HW,2013-05-03 23:36:00,
2013-05-03 20:00:00,65.9,54.5,30.01,North,0,0.0,0.0,67,0.00,,,0.00,WUHU216HW,2013-05-04 00:00:00,
2013-05-03 20:01:00,65.9,54.5,30.01,North,0,0.0,0.0,67,0.00,,,0.00,WUHU216HW,2013-05-04 00:01:00,
2013-05-03 20:06:00,65.9,54.5,30.01,North,0,0.0,0.0,67,0.00,,,0.00,WUHU216HW,2013-05-04 00:06:00,
2013-05-03 20:30:00,65.3,54.6,30.01,North,0,0.0,0.0,68,0.00,,,0.00,WUHU216HW,2013-05-04 00:30:00,
2013-05-03 20:31:00,65.3,54.6,30.01,North,0,0.0,0.0,68,0.00,,,0.00,WUHU216HW,2013-05-04 00:31:00,
2013-05-03 20:36:00,65.3,54.6,30.01,North,0,0.0,0.0,68,0.00,,,0.00,WUHU216HW,2013-05-04 00:36:00,
2013-05-03 21:00:00,64.8,54.5,30.01,North,0,0.0,0.0,69,0.00,,,0.00,WUHU216HW,2013-05-04 01:00:00,
2013-05-03 21:01:00,64.8,54.5,30.01,North,0,0.0,0.0,69,0.00,,,0.00,WUHU216HW,2013-05-04 01:01:00,
2013-05-03 21:06:00,64.8,54.5,30.01,North,0,0.0,0.0,69,0.00,,,0.00,WUHU216HW,2013-05-04 01:06:00,
2013-05-03 21:30:00,64.4,54.5,30.02,North,0,0.0,0.0,70,0.00,,,0.00,WUHU216HW,2013-05-04 01:30:00,
2013-05-03 21:31:00,64.4,54.5,30.02,North,0,0.0,0.0,70,0.00,,,0.00,WUHU216HW,2013-05-04 01:31:00,
2013-05-03 21:36:00,64.4,54.5,30.02,North,0,0.0,0.0,70,0.00,,,0.00,WUHU216HW,2013-05-04 01:36:00,
2013-05-03 22:00:00,63.9,54.0,30.02,North,0,0.0,0.0,70,0.00,,,0.00,WUHU216HW,2013-05-04 02:00:00,
2013-05-03 22:01:00,63.9,54.0,30.02,North,0,0.0,0.0,70,0.00,,,0.00,WUHU216HW,2013-05-04 02:01:00,
2013-05-03 22:06:00,63.9,54.0,30.02,North,0,0.0,0.0,70,0.00,,,0.00,WUHU216HW,2013-05-04 02:06:00,
2013-05-03 22:30:00,63.4,53.8,30.02,North,0,0.0,0.0,71,0.00,,,0.00,WUHU216HW,2013-05-04 02:30:00,
2013-05-03 22:31:00,63.4,53.8,30.02,North,0,0.0,0.0,71,0.00,,,0.00,WUHU216HW,2013-05-04 02:31:00,
2013-05-03 22:36:00,63.4,53.8,30.02,North,0,0.0,0.0,71,0.00,,,0.00,WUHU216HW,2013-05-04 02:36:00,
2013-05-03 23:00:00,63.0,52.7,30.02,North,0,0.0,0.0,69,0.00,,,0.00,WUHU216HW,2013-05-04 03:00:00,
2013-05-03 23:01:00,63.0,52.7,30.02,North,0,0.0,0.0,69,0.00,,,0.00,WUHU216HW,2013-05-04 03:01:00,
2013-05-03 23:06:00,63.0,52.7,30.02,North,0,0.0,0.0,69,0.00,,,0.00,WUHU216HW,2013-05-04 03:06:00,
2013-05-03 23:30:00,62.1,50.2,30.02,North,0,0.0,0.0,65,0.00,,,0.00,WUHU216HW,2013-05-04 03:30:00,
2013-05-03 23:31:00,62.1,50.2,30.02,North,0,0.0,0.0,65,0.00,,,0.00,WUHU216HW,2013-05-04 03:31:00,
2013-05-03 23:36:00,62.1,50.2,30.02,North,0,0.0,0.0,65,0.00,,,0.00,WUHU216HW,2013-05-04 03:36:00,